Location: Mauries
(43.6188°N, 0.3322°W)
Time: 20:00:56
(UTC+00:00)

Meteor 2-10 Rocket - Pass Details

Date: 14 January 2026
Orbit: 733 x 881 km, 81.2° (Epoch: 10 February)

Event Time Altitude Azimuth Distance (km) Brightness Sun altitude
Rises 05:48:40 0° 190° (S) 3,156 6.7 -18.3°
Reaches altitude 10° 05:50:57 10° 190° (S) 2,247 5.9 -17.9°
Maximum altitude 05:56:00 86° 279° (W) 765 3.4 -17.0°
Drops below altitude 10° 06:01:15 10° 10° (N) 2,336 6.0 -16.1°
Sets 06:03:40 0° 11° (N) 3,291 6.7 -15.7°
